Location: Unspecified
(36.1222°N, 0.0000°E)
Time: 13:34:47
(UTC+00:00)

ISS - Visible Passes

Search period start: 23 October 2019 00:00
Search period end: 02 November 2019 00:00
Orbit: 411 x 421 km, 51.6° (Epoch: 23 October)

Date Brightness Start Highest point End Pass type
(mag) Time Alt. Az. Time Alt. Az. Time Alt. Az.
23 Oct -2.7 05:33:13 10° SSW 05:36:28 47° SE 05:39:43 10° ENE visible
24 Oct -1.6 04:45:13 10° S 04:48:01 25° SE 04:50:50 10° ENE visible
25 Oct -0.8 03:59:35 14° SE 03:59:38 14° SE 04:01:23 10° E visible
25 Oct -3.5 05:32:45 10° WSW 05:36:02 50° NW 05:39:19 10° NE visible
26 Oct -3.8 04:46:50 57° SW 04:47:27 85° SE 04:50:50 10° NE visible
27 Oct -1.1 04:00:54 20° ENE 04:00:54 20° ENE 04:02:08 10° ENE visible
27 Oct -2.2 05:33:50 13° WNW 05:35:47 20° NNW 05:38:24 10° NNE visible
28 Oct -2.5 04:47:42 29° N 04:47:42 29° N 04:50:07 10° NNE visible
29 Oct -0.6 04:01:26 12° NE 04:01:26 12° NE 04:01:43 10° NE visible
29 Oct -1.4 05:34:44 10° NW 05:35:44 11° NNW 05:36:43 10° N visible
30 Oct -1.3 04:47:58 13° N 04:47:58 13° N 04:48:55 10° NNE visible
